TimeEST,TemperatureF,Dew PointF,Humidity,Sea Level PressureIn,VisibilityMPH,Wind Direction,Wind SpeedMPH,Gust SpeedMPH,PrecipitationIn,Events,Conditions,WindDirDegrees,DateUTC
12:23 AM,35.6,30.2,81,29.91,1.8,WSW,9.2,17.3,0.00,Snow,Light Snow,250,2013-01-10 05:23:00
12:33 AM,33.8,30.2,87,29.91,3.0,WSW,4.6,-,0.01,Snow,Light Snow,250,2013-01-10 05:33:00
12:42 AM,33.8,30.2,87,29.92,1.8,SW,6.9,-,0.02,Snow,Light Snow,230,2013-01-10 05:42:00
12:49 AM,33.8,30.2,87,29.93,1.2,West,6.9,-,0.03,Snow,Light Snow,260,2013-01-10 05:49:00
12:52 AM,34.0,30.9,89,29.97,1.8,WSW,8.1,-,0.03,Snow,Light Snow,250,2013-01-10 05:52:00
1:07 AM,33.8,30.2,87,29.94,2.5,West,11.5,24.2,0.00,Snow,Light Snow,270,2013-01-10 06:07:00
1:13 AM,33.8,30.2,87,29.95,3.0,West,11.5,24.2,0.01,Snow,Light Snow,270,2013-01-10 06:13:00
1:25 AM,35.6,30.2,81,29.96,8.0,West,16.1,24.2,0.01,Snow,Light Snow,280,2013-01-10 06:25:00
1:52 AM,35.1,30.0,82,30.03,6.0,West,17.3,26.5,0.01,Snow,Light Snow,270,2013-01-10 06:52:00
2:17 AM,33.8,30.2,87,30.00,2.5,WNW,15.0,19.6,0.00,Snow,Light Snow,290,2013-01-10 07:17:00
2:25 AM,33.8,28.4,81,30.01,5.0,West,17.3,25.3,0.00,Snow,Light Snow,270,2013-01-10 07:25:00
2:52 AM,34.0,28.9,82,30.07,3.0,West,13.8,21.9,0.00,Snow,Light Snow,270,2013-01-10 07:52:00
3:28 AM,35.6,28.4,75,30.05,10.0,West,10.4,24.2,0.01,,Overcast,260,2013-01-10 08:28:00
3:52 AM,35.1,27.0,72,30.12,10.0,West,12.7,21.9,0.01,,Overcast,270,2013-01-10 08:52:00
4:52 AM,35.1,25.0,67,30.17,10.0,West,16.1,25.3,N/A,,Overcast,280,2013-01-10 09:52:00
5:52 AM,35.1,25.0,67,30.20,10.0,West,15.0,20.7,N/A,,Overcast,280,2013-01-10 10:52:00
7:52 AM,35.1,24.1,64,30.28,10.0,WNW,11.5,18.4,N/A,,Overcast,300,2013-01-10 12:52:00
9:52 AM,35.1,24.1,64,30.34,10.0,NW,10.4,20.7,N/A,,Overcast,310,2013-01-10 14:52:00
10:52 AM,36.0,23.0,59,30.35,10.0,WNW,15.0,21.9,N/A,,Overcast,300,2013-01-10 15:52:00
11:52 AM,37.0,23.0,57,30.35,10.0,WNW,15.0,27.6,N/A,,Overcast,300,2013-01-10 16:52:00
12:52 PM,36.0,23.0,59,30.38,10.0,NW,12.7,19.6,N/A,,Overcast,310,2013-01-10 17:52:00
1:52 PM,37.0,21.9,54,30.40,10.0,WNW,16.1,20.7,N/A,,Overcast,290,2013-01-10 18:52:00
2:52 PM,36.0,21.9,57,30.44,10.0,NW,8.1,17.3,N/A,,Overcast,320,2013-01-10 19:52:00
3:52 PM,35.1,23.0,61,30.46,10.0,NW,11.5,20.7,N/A,,Overcast,310,2013-01-10 20:52:00
4:52 PM,34.0,21.9,61,30.50,10.0,NW,10.4,17.3,N/A,,Overcast,320,2013-01-10 21:52:00
5:52 PM,34.0,21.9,61,30.52,10.0,NNW,9.2,18.4,N/A,,Overcast,330,2013-01-10 22:52:00
6:52 PM,33.1,21.0,61,30.53,10.0,NNW,11.5,-,N/A,,Overcast,330,2013-01-10 23:52:00
7:52 PM,32.0,21.0,64,30.53,10.0,WNW,5.8,-,N/A,,Overcast,300,2013-01-11 00:52:00
8:18 PM,32.0,21.2,64,30.48,10.0,West,3.5,-,N/A,,Overcast,270,2013-01-11 01:18:00
8:52 PM,32.0,21.0,64,30.53,10.0,NNW,6.9,-,N/A,,Mostly Cloudy,330,2013-01-11 01:52:00
9:11 PM,30.2,19.4,64,30.49,10.0,NNE,5.8,-,N/A,,Scattered Clouds,20,2013-01-11 02:11:00
9:52 PM,28.0,19.0,69,30.56,10.0,East,3.5,-,N/A,,Clear,80,2013-01-11 02:52:00
10:52 PM,27.0,18.0,69,30.56,10.0,Calm,Calm,-,N/A,,Clear,0,2013-01-11 03:52:00
11:52 PM,21.0,16.0,81,30.55,10.0,Calm,Calm,-,N/A,,Clear,0,2013-01-11 04:52:00